Regional Weather Roundup
Issued by NWS Lake Charles, LA

Home | Current Version | Previous Version | Text Only | Print | Product List | Glossary On
Versions: 1 2 3 4 5 6 7 8 9 10 11 12 13 14 15 16 17 18 19 20 21 22 23 24 25 26 27 28 29 30 31 32 33 34 35 36 37 38 39 40 41 42 43 44 45 46 47 48 49 50
000
ASUS44 KLCH 261010
RWRLCH
RWRLCH
REGIONAL WEATHER ROUNDUP
NATIONAL WEATHER SERVICE LAKE CHARLES LA
500 AM CDT TUE MAY 26 2015

Note: "fair" indicates few or no clouds below 12,000 feet with no
significant weather and/or obstructions to visibility.


ACROSS SOUTHEAST TEXAS

CITY           SKY/WX    TMP DP  RH WIND       PRES   REMARKS
BEAUMONT       CLOUDY    68  66  93 SE13      30.01F
BEAUMONT CITY  RAIN      66  64  94 CALM      30.00R
ORANGE         CLOUDY    67  65  94 E6        30.03F
JASPER         CLOUDY    66  65  94 SE5       30.01S
$$

ACROSS CENTRAL LOUISIANA

CITY           SKY/WX    TMP DP  RH WIND       PRES   REMARKS
LEESVILLE      NOT AVBL
FULLERTON      LGT RAIN  66  62  87 VRB5      29.99F
ALEXANDRIA INT LGT RAIN  64  63  96 SE14      29.99F
ESLER FIELD    LGT RAIN  65  62  90 SE10      30.02F
DERIDDER       LGT RAIN  64  63  96 SE14      30.05F
OAKDALE        CLOUDY    64  63  96 SE5       30.06S
OPELOUSAS      LGT RAIN  63  62  96 SE5       30.09F
$$

ACROSS SOUTHWEST AND SOUTH CENTRAL LOUISIANA

CITY           SKY/WX    TMP DP  RH WIND       PRES   REMARKS
SULPHUR        RAIN      67  65  96 NE9       30.05F
LAKE CHARLES   LGT RAIN  66  64  93 E7        30.06F
CHENNAULT INT  LGT RAIN  65  64  97 SE7       30.08F
CAMERON PHI    CLOUDY    66  66 100 E9        30.07F
DEQUINCY       TSTM      64  64 100 SE7       30.08S
JENNINGS       LGT RAIN  65  64  98 SE5       30.08F
LAFAYETTE      LGT RAIN  65  63  93 VRB3      30.13R
NEW IBERIA     RAIN      66  64  93 E6        30.15R
ABBEVILLE      LGT RAIN  64  63  96 CALM      30.13S
PATTERSON      CLOUDY    64  63  94 N9        30.16R
SALT POINT       N/A     66  64  93 N8        30.13R
$$

SELECTED SITES ACROSS THE REGION

CITY           SKY/WX    TMP DP  RH WIND       PRES   REMARKS
HOUSTON BUSH   TSTM      68  65  90 S6        29.97F
HOUSTON HOBBY  CLOUDY    68  67  96 CALM      29.98S
GALVESTON      CLOUDY    73  70  90 NE7       29.99F
COLLEGE STAT   CLOUDY    67  65  93 E5        29.94F
CONROE         CLOUDY    66  63  90 CALM      29.97F
HUNTSVILLE     CLOUDY    67  64  90 S6        29.96F
LUFKIN         CLOUDY    67  63  87 S8        29.96F
SHREVEPORT     CLOUDY    64  62  93 S3        29.96R
MONROE         LGT RAIN  63  62  97 SE8G17    29.96F
NATCHEZ MS     CLOUDY    63  61  94 SE7       30.08F
BATON ROUGE    RAIN      64  61  90 VRB5      30.13R
N.O. INTL ARPT TSTM      67  62  84 NW23G32   30.12R
SLIDELL        LGT RAIN  65  65 100 NW12G29   30.12R
$$

MARINE REPORTS

STATION/POSITION TIME  TEMP    WIND        PRES    VSBY  WAVE
                       AIR SEA DIR/SP/G                  HT/PER
                 (UTC) (F)     (DEG/KT/KT) (MB)    (MI)  (FT/S)
BUOY 30 S HIGH I 0950   75 80   60/ 14/ 17 1014.9F         4/ 7
SEA RIM ST PARK  1000   66      70/  9/ 12 1016.6F
PORT ARTHUR      0900      76   50/  2/  5 1017.5F
SABINE PASS N    0900   67 78   80/ 10/ 12 1017.6F
TEXAS POINT      NOT AVBL
CALCASIEU PASS   0900   66 80  100/  4/  5   N/A
LK CHARLES BEACH 0900   65 77              1019.2R
MARSH ISLAND     0900   68      20/ 12/ 14   N/A           0
FRESH WATER LOCK 0900   66 80   30/  7/  9 1019.2R
AMERADA PASS     0900      78  320/  9/ 13 1020.0R
$$


USA.gov is the U.S. government's official web portal to all federal, state and local government web resources and services.